Hill City, KS

2:39 PM CST on January 23, 2018 (GMT -0600)
Hill City Municipal

Weather History for KHLC - June, 2013

Change the Weather History Date:

Wednesday, June 19, 2013

  Actual Average Record
Temperature  
Mean Temperature 76 °F 74 °F  
Max Temperature 88 °F 88 °F 109 °F (1936)
Min Temperature 63 °F 61 °F 42 °F (1985)
Cooling Degree Days 8    
Growing Degree Days 24 (Base 50)    
Moisture  
Dew Point 62 °F    
Average Humidity 66    
Maximum Humidity 97    
Minimum Humidity 41    
Precipitation  
Precipitation 0.06 in 0.09 in 0.11 in (2000)
Month to date precipitation 2.68 1.81  
Year to date precipitation 7.02 10.31  
Sea Level Pressure  
Sea Level Pressure 29.86 in    
Wind  
Wind Speed 7 mph (SSE)    
Max Wind Speed 20 mph    
Max Gust Speed 28 mph    
Visibility 10 miles    
Events Rain    
T = Trace of Precipitation, MM = Missing Value Source: NWS Daily Summary

Daily Weather History Graph

Daily Weather History Graph

Search for Another Location

Airport or City:

Trip Planner

Search our weather history database for the weather conditions in past years. The results will help you decide how hot, cold, wet, or windy it might be!

Date:

Astronomy

Jun. 19, 2013 Rise Set
Actual Time 6:12 AM CDT 9:09 PM CDT
Civil Twilight 5:39 AM CDT 9:41 PM CDT
Nautical Twilight 4:58 AM CDT 10:22 PM CDT
Astronomical Twilight 4:11 AM CDT 11:10 PM CDT
Moon 5:04 PM CDT (6/19) 2:57 AM CDT (6/19)
Length of Visible Light 16h 01m
Length of Day
14h 56m
Waxing Gibbous, 80% of the Moon is Illuminated
Jun 19
Waxing Gibbous
Jun 23
Full
Jun 29
Last Quarter
Jul 8
New
Jul 15
First Quarter

Hourly Weather History & Observations

Time (CDT) Temp. Heat Index Dew Point Humidity Pressure Visibility Wind Dir Wind Speed Gust Speed Precip Events Conditions
12:53 AM 64.9 °F - 60.1 °F 84% 29.94 in 10.0 mi SE 3.5 mph - N/A   Scattered Clouds
1:53 AM 66.9 °F - 57.0 °F 70% 29.94 in 10.0 mi Calm Calm - N/A   Mostly Cloudy
2:53 AM 64.9 °F - 61.0 °F 87% 29.89 in 10.0 mi Calm Calm - 0.05 in   Scattered Clouds
3:53 AM 64.0 °F - 62.1 °F 93% 29.92 in 10.0 mi Calm Calm - N/A   Clear
4:53 AM 63.0 °F - 60.1 °F 90% 29.94 in 10.0 mi East 5.8 mph - 0.01 in Rain Light Rain
5:53 AM 64.0 °F - 61.0 °F 90% 29.93 in 10.0 mi Calm Calm - 0.00 in   Scattered Clouds
6:53 AM 63.0 °F - 62.1 °F 97% 29.91 in 10.0 mi SSE 3.5 mph - 0.00 in   Partly Cloudy
7:53 AM 66.0 °F - 63.0 °F 90% 29.91 in 10.0 mi South 5.8 mph - N/A   Partly Cloudy
8:53 AM 70.0 °F - 63.0 °F 78% 29.91 in 10.0 mi South 5.8 mph - N/A   Clear
9:53 AM 75.0 °F - 63.0 °F 66% 29.91 in 10.0 mi SSW 9.2 mph - N/A   Clear
10:53 AM 77.0 °F - 64.0 °F 64% 29.90 in 10.0 mi SW 8.1 mph - N/A   Clear
11:53 AM 80.1 °F 81.7 °F 64.0 °F 58% 29.88 in 10.0 mi SSW 10.4 mph - N/A   Clear
12:53 PM 82.0 °F 83.0 °F 62.1 °F 51% 29.87 in 10.0 mi South 12.7 mph - N/A   Mostly Cloudy
1:53 PM 82.9 °F 84.0 °F 63.0 °F 51% 29.85 in 10.0 mi SSE 15.0 mph 24.2 mph N/A   Mostly Cloudy
2:53 PM 84.0 °F 84.5 °F 62.1 °F 47% 29.83 in 10.0 mi SE 19.6 mph 25.3 mph N/A   Scattered Clouds
3:53 PM 84.9 °F 85.0 °F 61.0 °F 44% 29.81 in 10.0 mi SE 18.4 mph 27.6 mph N/A   Mostly Cloudy
4:53 PM 84.9 °F 84.4 °F 59.0 °F 41% 29.81 in 10.0 mi SSE 17.3 mph 24.2 mph N/A   Mostly Cloudy
5:53 PM 84.9 °F 84.4 °F 59.0 °F 41% 29.79 in 10.0 mi SE 13.8 mph 24.2 mph N/A   Overcast
6:53 PM 84.0 °F 84.0 °F 60.1 °F 44% 29.78 in 10.0 mi SSE 13.8 mph - N/A   Mostly Cloudy
7:53 PM 82.9 °F 83.3 °F 61.0 °F 47% 29.78 in 10.0 mi SSE 18.4 mph 24.2 mph N/A   Partly Cloudy
8:53 PM 79.0 °F - 61.0 °F 54% 29.77 in 10.0 mi SSE 12.7 mph - N/A   Clear
9:53 PM 75.9 °F - 61.0 °F 60% 29.80 in 10.0 mi SSE 11.5 mph - N/A   Clear
10:53 PM 75.0 °F - 63.0 °F 66% 29.83 in 10.0 mi South 11.5 mph - N/A   Clear
11:53 PM 73.9 °F - 64.0 °F 71% 29.82 in 10.0 mi SE 10.4 mph - N/A   Clear